Regional Weather Roundup
Issued by NWS

Home | Current Version | Previous Version | Graphics & Text | Print | Product List | Glossary On
Versions: 1 2 3 4 5 6 7 8 9 10 11 12 13 14 15 16 17 18 19 20 21 22 23 24 25 26 27 28 29 30 31 32 33 34 35 36 37 38 39 40 41 42 43 44 45 46 47 48 49 50
000
ASUS45 KPSR 231610
RWRAZ

ARIZONA REGIONAL HOURLY WEATHER ROUNDUP
NATIONAL WEATHER SERVICE TUCSON AZ
900 AM MST TUE MAY 23 2017

NOTE: FAIR INDICATES FEW OR NO CLOUDS BELOW 12,000 FEET WITH NO
SIGNIFICANT WEATHER AND/OR OBSTRUCTIONS TO VISIBILITY.

AZZ001>003-036-231700-
NORTHWEST ARIZONA

CITY           SKY/WX    TMP DP  RH WIND       PRES   REMARKS
BULLHEAD CITY  SUNNY     91  30  11 N18       29.91S
KINGMAN        SUNNY     83  26  12 N6        30.11R
$$

AZZ004>008-015-016-018-231700-
NORTH CENTRAL ARIZONA

CITY           SKY/WX    TMP DP  RH WIND       PRES   REMARKS
GRAND CANYON   SUNNY     64  29  26 NE15G21   30.31R
WILLIAMS       SUNNY     66  32  28 NE10G16   30.29S
PRESCOTT       SUNNY     72  27  18 N3        30.19R
FLAGSTAFF      SUNNY     62  28  27 NE14G25   30.31R
PAGE           SUNNY     70  37  29 VRB7      30.22S
$$

AZZ009>014-017-231700-
NORTHEAST ARIZONA

CITY           SKY/WX    TMP DP  RH WIND       PRES   REMARKS
WINSLOW        SUNNY     69  28  21 NW7       30.22S
SAINT JOHNS    SUNNY     68  26  20 NW9       30.20F
WINDOW ROCK    SUNNY     64  29  26 N8        30.25F
SHOW LOW       SUNNY     63  25  23 N10       30.28R
$$

AZZ023-231700-
GREATER PHOENIX AREA

CITY           SKY/WX    TMP DP  RH WIND       PRES   REMARKS
PHOENIX        SUNNY     90  31  12 E6        29.90R
BUCKEYE        SUNNY     88  36  15 SE8       29.90F
GLENDALE       SUNNY     93  25   8 NW12      29.91R
LUKE AFB       SUNNY     94  28   9 N13       29.88S
DEER VALLEY    SUNNY     89  23   9 W3        29.91R
SCOTTSDALE     SUNNY     89  31  12 VRB3      29.93R
MESA-GATEWAY   SUNNY     86  34  15 SE6       29.93R
CHANDLER       SUNNY     88  32  13 N6        29.91R
$$

AZZ027-028-231700-
SOUTHWEST MARICOPA COUNTY AND PINAL COUNTY

CITY           SKY/WX    TMP DP  RH WIND       PRES   REMARKS
CASA GRANDE    SUNNY     84  34  16 CALM      29.93R
$$

AZZ503-504-507>509-231700-
SOUTHEAST ARIZONA

CITY           SKY/WX    TMP DP  RH WIND       PRES   REMARKS
TUCSON         SUNNY    N/A N/A N/A MISG      30.01S
DAVIS-MONTHAN  SUNNY     85  26  11 CALM      30.00S
RYAN FIELD     SUNNY     88  28  11 E3        30.00R
NOGALES        SUNNY     82  25  12 CALM      30.08S
SIERRA VISTA   SUNNY     82  22  11 CALM      30.14R
DOUGLAS        SUNNY     80  21  11 W5        30.09S
SAFFORD        SUNNY     81  24  12 CALM      30.02R
$$

AZZ020-021-025-026-031-231700-
SOUTHWEST ARIZONA

CITY           SKY/WX    TMP DP  RH WIND       PRES   REMARKS
YUMA           MOSUNNY   89  45  21 W3        29.84S
$$

CAZ031-033-041-043-047-048-061-231700-
SOUTHERN CALIFORNIA

CITY           SKY/WX    TMP DP  RH WIND       PRES   REMARKS
DOWNTOWN L.A.  SUNNY     70  58  65 CALM      29.93F
L.A. AIRPORT   PTSUNNY   68  58  70 E3        29.94F
SAN DIEGO      MOSUNNY   69  59  70 NE5       29.94F
BURBANK        SUNNY     73  53  49 CALM      29.95S
ONTARIO        MOSUNNY   74  56  53 CALM      29.96R
RIVERSIDE      SUNNY     75  56  51 W5        29.95S
PALM SPRINGS   SUNNY     94  43  17 CALM      29.88R
EL CENTRO NAS  MOSUNNY   93  46  19 E5        29.85R
IMPERIAL       SUNNY     91  50  24 NW3       29.83R
BLYTHE         SUNNY     90  33  13 SW3       29.88R
NEEDLES        SUNNY     93  29  10 NE10      29.93S
$$

NVZ020-UTZ003-231700-
SOUTHERN NEVADA-UTAH

CITY           SKY/WX    TMP DP  RH WIND       PRES   REMARKS
LAS VEGAS      SUNNY     85  26  11 NE6       30.04R
SALT LAKE CITY MOSUNNY   70  40  33 S7        30.18S
$$

NMZ009-TXZ055-231700-
NEW MEXICO-WEST TEXAS

CITY           SKY/WX    TMP DP  RH WIND       PRES   REMARKS
ALBUQUERQUE    MOSUNNY   62  40  44 E12G21    30.17R
EL PASO        SUNNY     74  41  30 E7        30.07S
$$


........................KEY........................
SKY/WX - SKY CONDITION/WEATHER
TMP    - TEMPERATURE IN FAHRENHEIT
DP     - DEWPOINT IN FAHRENHEIT
RH     - RELATIVE HUMIDITY IN PERCENT
WIND   - DIRECTION AND SPEED IN MILES PER HOUR (MPH)
VRB    - VARIABLE WIND DIRECTION
PRES   - MEAN SEA LEVEL PRESSURE IN INCHES OF MERCURY
         F - FALLING PRESSURE   R - RISING PRESSURE
         S - STEADY PRESSURE
VSB    - VISIBILITY IN MILES
HX     - HEAT INDEX IN FAHRENHEIT
WCI    - WIND CHILL INDEX IN FAHRENHEIT
TC     - TEMPERATURE IN CELSIUS WHICH IS ALSO KNOWN AS
         TEMPERATURE IN CENTIGRADE
AFB    - AIR FORCE BASE
         LUKE AFB IS LUKE AIR FORCE BASE
         DAVIS-MONTHAN IS DAVIS-MONTHAN AIR FORCE BASE
NAS    - NAVAL AIR STATION
         EL CENTRO NAS IS EL CENTRO NAVAL AIR STATION
N/A    - NOT AVAILABLE




USA.gov is the U.S. government's official web portal to all federal, state and local government web resources and services.